Date,TemperatureHighF,TemperatureAvgF,TemperatureLowF,DewpointHighF,DewpointAvgF,DewpointLowF,HumidityHigh,HumidityAvg,HumidityLow,PressureMaxIn,PressureMinIn,WindSpeedMaxMPH,WindSpeedAvgMPH,GustSpeedMaxMPH,PrecipitationSumIn
2013-4-1,62,53,47,56,51,46,100,93,76,30.16,30.05,5,1,9,0.02
2013-4-2,66,53,43,57,50,43,100,89,66,30.19,30.10,6,1,9,0.01
2013-4-3,72,53,41,58,49,41,100,88,58,30.14,30.00,6,1,9,0.00
2013-4-4,56,50,46,56,50,46,100,99,96,30.13,29.98,6,1,9,0.91
2013-4-5,59,53,50,56,51,49,100,95,80,30.20,30.12,6,1,9,0.06
2013-4-6,66,55,49,58,51,46,100,87,55,30.19,30.13,5,1,10,0.03
2013-4-7,61,52,44,57,49,43,100,90,69,30.15,29.82,7,2,13,0.17
2013-4-8,67,51,41,43,40,35,96,67,37,30.07,29.81,11,2,24,0.00
2013-4-9,78,59,44,46,41,33,84,55,25,30.14,30.07,4,0,11,0.00
2013-4-10,85,67,55,56,48,44,74,53,27,30.18,30.04,9,1,20,0.00
2013-4-11,76,61,48,52,45,37,85,59,26,30.07,29.84,4,1,18,0.00
2013-4-12,78,59,44,52,44,36,94,62,31,29.91,29.82,6,1,11,0.00
2013-4-13,75,61,49,49,41,35,70,49,30,29.89,29.80,7,1,15,0.00
2013-4-14,70,55,45,48,36,21,95,53,25,29.92,29.86,17,2,20,0.00
2013-4-15,59,49,40,43,36,33,94,66,43,29.99,29.86,14,2,17,0.00
2013-4-16,69,52,39,40,35,28,75,54,24,30.20,30.00,5,1,12,0.00
2013-4-17,74,58,43,42,35,29,69,46,23,30.30,30.18,4,0,7,0.00
2013-4-18,74,60,46,46,40,33,78,52,25,30.27,30.19,10,1,10,0.00
2013-4-19,82,64,49,56,47,42,87,59,29,30.22,30.09,7,2,24,0.00
2013-4-20,81,65,52,51,43,36,67,47,20,30.11,29.97,9,1,11,0.00
2013-4-21,83,67,50,54,47,44,86,54,26,30.03,29.92,7,1,10,0.00
2013-4-22,87,70,56,56,49,43,76,50,22,29.96,29.84,6,1,13,0.00
2013-4-23,80,66,46,48,34,13,85,35,15,29.92,29.84,7,1,9,0.00
2013-4-24,65,50,40,51,45,39,98,83,61,29.97,29.81,8,2,9,0.00
2013-4-25,65,51,44,53,47,43,97,85,62,30.13,29.97,6,1,9,0.00
2013-4-26,72,53,43,57,48,42,100,86,57,30.23,30.13,6,1,10,0.00
2013-4-27,79,57,43,58,50,43,100,79,45,30.23,30.06,6,1,8,0.01
2013-4-28,87,67,50,58,52,44,95,64,31,30.06,29.88,6,1,9,0.00
2013-4-29,91,72,57,55,49,43,75,48,22,29.89,29.77,5,1,14,0.00
2013-4-30,87,70,56,47,40,30,67,38,14,29.86,29.77,4,0,11,0.00